When you browse on this site, cookies collect data to enhance your experience and personalize the content and advertising you see.
Visit our Privacy Policy to learn more. By continuing to use the site, you agree to this use of cookies and data.
  • In Lithuania
  • List of Countries
  • For 7 days
  • Water Temperature
  • Weather Map
  • Weather Widgets
  • user-avatar
    Login

    Hourly Weather Koudougou

    Today, 16 September, Monday

    Time Temperature Precipitation Wind Pressure Humidity
    00:00 +28°C° 0 mm 1 mps 732 mmHg 80%
    01:00 +28°C° 0.1 mm 1 mps 732 mmHg 79%
    02:00 +28°C° 0.1 mm 1 mps 731 mmHg 78%
    03:00 +28°C° 0.1 mm 1 mps 731 mmHg 78%
    04:00 +28°C° 0.7 mm 1 mps 731 mmHg 80%
    05:00 +27°C° 0.7 mm 2 mps 731 mmHg 81%
    06:00 +27°C° 0.7 mm 2 mps 732 mmHg 83%
    07:00 +28°C° 0 mm 2 mps 732 mmHg 81%
    08:00 +28°C° 0 mm 3 mps 733 mmHg 78%
    09:00 +29°C° 0 mm 3 mps 734 mmHg 76%
    10:00 +30°C° 0 mm 2 mps 733 mmHg 69%
    11:00 +31°C° 0 mm 1 mps 733 mmHg 63%
    12:00 +33°C° 0 mm 1 mps 732 mmHg 57%
    13:00 +32°C° 1.7 mm 1 mps 731 mmHg 61%
    14:00 +31°C° 1.7 mm 2 mps 731 mmHg 64%
    15:00 +31°C° 1.7 mm 2 mps 730 mmHg 68%
    16:00 +30°C° 0.4 mm 2 mps 730 mmHg 71%
    17:00 +30°C° 0.4 mm 2 mps 730 mmHg 74%
    18:00 +29°C° 0.4 mm 2 mps 731 mmHg 76%
    19:00 +28°C° 0.1 mm 2 mps 731 mmHg 78%
    20:00 +28°C° 0.1 mm 1 mps 732 mmHg 80%
    21:00 +27°C° 0.1 mm 1 mps 732 mmHg 82%
    22:00 +27°C° 0.1 mm 1 mps 732 mmHg 83%
    23:00 +27°C° 0.1 mm 2 mps 732 mmHg 84%

    Tomorrow, 17 September, Tuesday

    Time Temperature Precipitation Wind Pressure Humidity
    00:00 +26°C° 0.1 mm 2 mps 732 mmHg 85%
    01:00 +26°C° 0.3 mm 2 mps 732 mmHg 86%
    02:00 +26°C° 0.3 mm 2 mps 731 mmHg 86%
    03:00 +26°C° 0.3 mm 2 mps 731 mmHg 86%
    04:00 +26°C° 0 mm 2 mps 731 mmHg 87%
    05:00 +26°C° 0 mm 2 mps 731 mmHg 87%
    06:00 +26°C° 0 mm 2 mps 732 mmHg 88%
    07:00 +27°C° 0 mm 3 mps 732 mmHg 84%
    08:00 +27°C° 0 mm 4 mps 732 mmHg 80%
    09:00 +28°C° 0 mm 4 mps 733 mmHg 77%
    10:00 +29°C° 0 mm 4 mps 733 mmHg 72%
    11:00 +32°C° 0 mm 4 mps 732 mmHg 67%
    12:00 +33°C° 0 mm 3 mps 732 mmHg 63%
    13:00 +33°C° 0 mm 3 mps 732 mmHg 63%
    14:00 +33°C° 0 mm 3 mps 731 mmHg 63%
    15:00 +33°C° 0 mm 3 mps 730 mmHg 64%
    16:00 +31°C° 0 mm 3 mps 730 mmHg 67%
    17:00 +30°C° 0 mm 3 mps 730 mmHg 71%
    18:00 +29°C° 0 mm 2 mps 730 mmHg 74%
    19:00 +29°C° 0.1 mm 2 mps 731 mmHg 76%
    20:00 +28°C° 0.1 mm 2 mps 731 mmHg 78%
    21:00 +27°C° 0.1 mm 2 mps 732 mmHg 81%
    22:00 +27°C° 0.1 mm 2 mps 732 mmHg 81%
    23:00 +27°C° 0.1 mm 2 mps 732 mmHg 82%

    Day after tomorrow, 18 September, Wednesday

    Time Temperature Precipitation Wind Pressure Humidity
    00:00 +27°C° 0.1 mm 2 mps 732 mmHg 82%
    01:00 +27°C° 0.2 mm 2 mps 732 mmHg 84%
    02:00 +26°C° 0.2 mm 2 mps 731 mmHg 86%
    03:00 +26°C° 0.2 mm 2 mps 731 mmHg 88%
    04:00 +26°C° 0 mm 2 mps 731 mmHg 89%
    05:00 +26°C° 0 mm 2 mps 732 mmHg 91%
    06:00 +25°C° 0 mm 2 mps 732 mmHg 92%
    07:00 +27°C° 0 mm 2 mps 733 mmHg 86%
    08:00 +28°C° 0 mm 2 mps 733 mmHg 80%
    09:00 +29°C° 0 mm 2 mps 733 mmHg 74%
    10:00 +31°C° 0 mm 2 mps 733 mmHg 68%
    11:00 +32°C° 0 mm 2 mps 733 mmHg 61%
    12:00 +34°C° 0 mm 2 mps 732 mmHg 55%
    13:00 +35°C° 0 mm 2 mps 732 mmHg 53%
    14:00 +35°C° 0 mm 2 mps 731 mmHg 51%
    15:00 +34°C° 0 mm 1 mps 731 mmHg 49%
    16:00 +33°C° 0 mm 1 mps 731 mmHg 54%
    17:00 +32°C° 0 mm 1 mps 731 mmHg 60%
    18:00 +31°C° 0 mm 1 mps 731 mmHg 65%
    19:00 +30°C° 0.2 mm 2 mps 732 mmHg 67%
    20:00 +30°C° 0.2 mm 2 mps 732 mmHg 69%
    21:00 +29°C° 0.2 mm 3 mps 733 mmHg 72%
    22:00 +28°C° 0.8 mm 3 mps 733 mmHg 77%
    23:00 +27°C° 0.8 mm 3 mps 733 mmHg 82%

    19 September, Thursday

    Time Temperature Precipitation Wind Pressure Humidity
    00:00 +26°C° 0.8 mm 4 mps 733 mmHg 87%
    01:00 +26°C° 0.1 mm 4 mps 732 mmHg 87%
    02:00 +25°C° 0.1 mm 4 mps 732 mmHg 87%
    03:00 +25°C° 0.1 mm 4 mps 731 mmHg 87%
    04:00 +25°C° 0.1 mm 3 mps 732 mmHg 87%
    05:00 +25°C° 0.1 mm 2 mps 732 mmHg 86%
    06:00 +25°C° 0.1 mm 1 mps 732 mmHg 86%
    07:00 +26°C° 0.2 mm 2 mps 733 mmHg 81%
    08:00 +27°C° 0.2 mm 2 mps 733 mmHg 76%
    09:00 +28°C° 0.2 mm 2 mps 734 mmHg 70%
    10:00 +29°C° 0 mm 1 mps 734 mmHg 66%
    11:00 +31°C° 0 mm 1 mps 733 mmHg 61%
    12:00 +32°C° 0 mm 1 mps 733 mmHg 57%
    13:00 +32°C° 0 mm 1 mps 733 mmHg 57%
    14:00 +32°C° 0 mm 1 mps 732 mmHg 57%
    15:00 +32°C° 0 mm 2 mps 732 mmHg 57%
    16:00 +32°C° 0 mm 2 mps 732 mmHg 60%
    17:00 +31°C° 0 mm 2 mps 732 mmHg 63%
    18:00 +30°C° 0 mm 2 mps 731 mmHg 66%
    19:00 +30°C° 0 mm 1 mps 732 mmHg 68%
    20:00 +29°C° 0 mm 1 mps 732 mmHg 70%
    21:00 +26°C° 0 mm 0 mps 733 mmHg 72%
    22:00 +28°C° 0 mm 1 mps 733 mmHg 71%
    23:00 +28°C° 0 mm 1 mps 733 mmHg 70%

    20 September, Friday

    Time Temperature Precipitation Wind Pressure Humidity
    00:00 +28°C° 0 mm 2 mps 733 mmHg 69%
    01:00 +28°C° 0 mm 2 mps 732 mmHg 70%
    02:00 +28°C° 0 mm 2 mps 732 mmHg 72%
    03:00 +28°C° 0 mm 2 mps 731 mmHg 73%
    04:00 +27°C° 0 mm 2 mps 732 mmHg 75%
    05:00 +27°C° 0 mm 2 mps 732 mmHg 78%
    06:00 +26°C° 0 mm 2 mps 732 mmHg 80%
    07:00 +28°C° 0 mm 3 mps 732 mmHg 75%
    08:00 +29°C° 0 mm 3 mps 733 mmHg 70%
    09:00 +32°C° 0 mm 4 mps 733 mmHg 65%
    10:00 +33°C° 0 mm 4 mps 733 mmHg 61%
    11:00 +34°C° 0 mm 4 mps 733 mmHg 57%
    12:00 +35°C° 0 mm 4 mps 733 mmHg 53%
    13:00 +35°C° 0 mm 4 mps 732 mmHg 51%
    14:00 +36°C° 0 mm 5 mps 731 mmHg 50%
    15:00 +36°C° 0 mm 5 mps 731 mmHg 48%
    16:00 +35°C° 0 mm 4 mps 731 mmHg 53%
    17:00 +34°C° 0 mm 3 mps 731 mmHg 59%
    18:00 +31°C° 0 mm 3 mps 731 mmHg 64%
    19:00 +31°C° 0 mm 3 mps 731 mmHg 67%
    20:00 +30°C° 0 mm 3 mps 732 mmHg 69%
    21:00 +29°C° 0 mm 2 mps 732 mmHg 72%
    22:00 +29°C° 0 mm 2 mps 733 mmHg 75%
    23:00 +28°C° 0 mm 2 mps 733 mmHg 78%

    21 September, Saturday

    Time Temperature Precipitation Wind Pressure Humidity
    00:00 +28°C° 0 mm 2 mps 733 mmHg 81%
    01:00 +27°C° 0 mm 2 mps 733 mmHg 82%
    02:00 +27°C° 0 mm 2 mps 732 mmHg 83%
    03:00 +26°C° 0 mm 1 mps 732 mmHg 85%
    04:00 +26°C° 0 mm 1 mps 732 mmHg 84%
    05:00 +26°C° 0 mm 1 mps 732 mmHg 84%
    06:00 +26°C° 0 mm 2 mps 733 mmHg 83%
    07:00 +27°C° 0 mm 2 mps 733 mmHg 78%
    08:00 +29°C° 0 mm 2 mps 733 mmHg 72%
    09:00 +30°C° 0 mm 2 mps 734 mmHg 67%
    10:00 +32°C° 0 mm 2 mps 733 mmHg 61%
    11:00 +34°C° 0 mm 2 mps 733 mmHg 55%
    12:00 +35°C° 0 mm 2 mps 732 mmHg 49%
    13:00 +36°C° 0 mm 2 mps 732 mmHg 46%
    14:00 +36°C° 0 mm 2 mps 731 mmHg 44%
    15:00 +37°C° 0 mm 2 mps 730 mmHg 41%
    16:00 +36°C° 0 mm 2 mps 730 mmHg 46%
    17:00 +35°C° 0 mm 2 mps 730 mmHg 50%
    18:00 +34°C° 0 mm 2 mps 730 mmHg 54%
    19:00 +32°C° 0.2 mm 2 mps 730 mmHg 56%
    20:00 +31°C° 0.2 mm 2 mps 731 mmHg 58%
    21:00 +30°C° 0.2 mm 2 mps 731 mmHg 60%
    22:00 +30°C° 0 mm 3 mps 732 mmHg 63%
    23:00 +29°C° 0 mm 3 mps 732 mmHg 66%
    Show more